Powrót do katalogu

GEESAT 1-02

AktywnyNaukaLEO
NORAD 52786·PAYLOAD·🇨🇳 China

Wystrzelony Jun 2, 2022 z Xichang Satellite Launch Center

Loading…

Następne Przeloty (najbliższe 24 godziny)

TLE

ŚwieżeSource: Space-Track

Epoka: Sep 14, 2026, 21:54 UTC

1 52786U 22058B   26257.91255188  .00001125  00000-0  16959-3 0  9998
2 52786  50.0004 148.3691 0022384 235.2830 124.6000 14.81599726233231

Śledź GEESAT 1-02 w czasie rzeczywistym z AllMySat

Download on the App Store